FW6321 Weather Reports


Display with metric or nautical units.
time (UTC)temp
F
wind
direction
speed
MPH
gust
MPH
rain 1hr
in
rain 24hr
in
rain mn
in
humidity
%
barometer
mb
20260905034132 57 220 2.0 5.0 0.00 0.09 0.00 88 1018.1
20260905034120 57 201 2.0 4.0 0.00 0.09 0.00 88 1018.1
20260905033132 57 208 2.0 4.0 0.00 0.09 0.00 87 1018.1
20260905032632 57 207 2.0 5.0 0.00 0.09 0.00 87 1018.2
20260905032131 58 208 2.0 5.0 0.00 0.09 0.00 87 1018.0
20260905031628 58 203 2.0 4.0 0.00 0.09 0.00 86 1018.0
20260905031610 58 208 2.0 4.0 0.00 0.09 0.00 86 1017.9
20260905031106 58 224 2.0 4.0 0.00 0.09 0.00 86 1017.8
20260905030125 58 216 2.0 4.0 0.00 0.09 0.00 86 1017.8
20260905025625 59 222 2.0 6.0 0.00 0.09 0.00 86 1017.6
20260905025123 59 237 3.0 6.0 0.00 0.09 0.00 86 1017.6
20260905024623 59 217 3.0 6.0 0.00 0.09 0.00 85 1017.6
20260905024122 59 224 3.0 7.0 0.00 0.09 0.00 85 1017.6
20260905023622 59 236 3.0 7.0 0.00 0.09 0.00 85 1017.6
20260905023123 59 233 3.0 6.0 0.00 0.09 0.00 85 1017.5
20260905022624 59 229 4.0 8.0 0.00 0.09 0.00 85 1017.6
20260905022601 59 226 5.0 9.0 0.00 0.09 0.00 85 1017.6
20260905021620 59 241 4.0 9.0 0.00 0.09 0.00 86 1017.6
20260905021123 59 227 4.0 8.0 0.00 0.09 0.00 86 1017.6
20260905020623 59 223 3.0 8.0 0.00 0.09 0.00 86 1017.5
20260905020618 59 206 3.0 7.0 0.00 0.09 0.00 86 1017.5
20260905020108 59 235 3.0 7.0 0.00 0.09 0.00 86 1017.5
20260905015119 59 227 3.0 8.0 0.00 0.09 0.00 86 1017.5
20260905015108 59 246 3.0 8.0 0.00 0.09 0.00 86 1017.5
20260905014115 59 244 3.0 7.0 0.00 0.09 0.00 86 1017.5
20260905014101 59 246 3.0 7.0 0.00 0.09 0.00 86 1017.3
20260905013113 59 216 3.0 8.0 0.00 0.09 0.00 86 1017.4
20260905012612 59 235 3.0 8.0 0.00 0.09 0.00 85 1017.4
20260905012115 59 207 3.0 7.0 0.00 0.09 0.00 85 1017.3
20260905011614 59 218 3.0 5.0 0.00 0.09 0.00 85 1017.3
20260905011113 59 224 2.0 5.0 0.00 0.09 0.00 85 1017.4
20260905010615 59 229 2.0 4.0 0.00 0.09 0.00 84 1017.4
20260905010113 60 214 2.0 5.0 0.00 0.09 0.00 84 1017.2
20260905005614 60 218 2.0 5.0 0.00 0.09 0.00 84 1017.3
20260905005113 60 217 3.0 6.0 0.00 0.09 0.00 84 1017.2
20260905004613 60 238 3.0 9.0 0.00 0.09 0.00 84 1017.3
20260905004552 60 238 3.0 9.0 0.00 0.09 0.00 84 1017.3
20260905003610 60 211 3.0 7.0 0.00 0.09 0.00 84 1017.2
20260905003113 60 232 3.0 7.0 0.00 0.09 0.00 84 1017.3
20260905002611 60 241 3.0 7.0 0.00 0.09 0.00 84 1017.2
20260905002115 60 240 3.0 7.0 0.00 0.09 0.00 84 1017.3
20260905001610 60 199 3.0 6.0 0.00 0.09 0.00 84 1017.3
20260905001558 60 221 3.0 6.0 0.00 0.09 0.00 83 1017.3
20260905000607 60 195 2.0 6.0 0.00 0.09 0.00 83 1017.3
20260905000104 60 210 3.0 6.0 0.00 0.09 0.00 83 1017.3
20260904235604 60 218 3.0 7.0 0.00 0.09 0.00 83 1017.1
20260904235105 60 206 4.0 7.0 0.00 0.09 0.00 83 1017.1
20260904234602 60 220 4.0 7.0 0.00 0.09 0.00 83 1017.0
20260904234102 60 239 3.0 7.0 0.00 0.09 0.00 82 1017.0
20260904233608 60 238 3.0 6.0 0.00 0.09 0.00 82 1016.9
20260904233104 61 235 3.0 7.0 0.00 0.09 0.00 82 1017.0
20260904232605 61 230 3.0 7.0 0.00 0.09 0.00 81 1017.0
20260904232106 61 200 2.0 5.0 0.00 0.09 0.00 81 1017.0
20260904231602 61 212 3.0 8.0 0.00 0.09 0.00 81 1016.9
20260904231102 62 245 3.0 8.0 0.00 0.09 0.00 80 1016.9
20260904231033 62 238 3.0 8.0 0.00 0.09 0.00 79 1016.9
20260904231028 62 229 3.0 8.0 0.00 0.09 0.00 79 1016.9
20260904230759 62 224 3.0 8.0 0.00 0.09 0.00 80 1016.9
20260904230525 62 212 3.0 8.0 0.00 0.09 0.00 79 1016.9
20260904230303 62 206 3.0 8.0 0.00 0.09 0.00 80 1016.9
20260904224106 62 241 4.0 8.0 0.00 0.09 0.00 79 1016.9
20260904223609 63 228 4.0 7.0 0.00 0.09 0.00 78 1016.9
20260904223544 63 217 4.0 9.0 0.00 0.09 0.00 78 1016.8
20260904222603 63 220 5.0 11.0 0.00 0.09 0.00 78 1016.9
20260904222102 63 231 5.0 11.0 0.00 0.09 0.00 77 1016.8
20260904221608 63 247 5.0 10.0 0.00 0.09 0.00 77 1016.8
20260904221103 63 216 4.0 8.0 0.00 0.09 0.00 77 1016.8
20260904220604 64 227 4.0 10.0 0.00 0.09 0.00 76 1016.8
20260904215602 64 249 5.0 10.0 0.00 0.09 0.09 76 1016.7
20260904215105 64 237 5.0 11.0 0.00 0.09 0.09 76 1016.6
20260904214604 64 243 6.0 11.0 0.00 0.09 0.09 75 1016.6
20260904214104 64 233 6.0 11.0 0.00 0.09 0.09 75 1016.5
20260904213603 64 229 7.0 12.0 0.00 0.09 0.09 75 1016.4
20260904213107 64 227 8.0 12.0 0.00 0.09 0.09 75 1016.5
20260904213048 64 241 8.0 15.0 0.00 0.09 0.09 74 1016.4
20260904212103 64 229 7.0 15.0 0.00 0.09 0.09 74 1016.2
20260904211602 64 233 6.0 13.0 0.00 0.09 0.09 74 1016.3
20260904211105 65 274 6.0 11.0 0.00 0.09 0.09 74 1016.3
20260904210608 65 231 6.0 12.0 0.00 0.09 0.09 74 1016.3
20260904210601 65 231 7.0 12.0 0.00 0.09 0.09 73 1016.2
20260904205608 65 239 7.0 15.0 0.00 0.09 0.09 74 1016.3
20260904205602 65 239 7.0 15.0 0.00 0.09 0.09 74 1016.2
20260904204602 65 229 7.0 15.0 0.00 0.09 0.09 74 1016.3
20260904204106 65 247 6.0 15.0 0.00 0.09 0.09 75 1016.3
20260904204055 65 233 6.0 11.0 0.00 0.09 0.09 75 1016.1
20260904203105 65 231 6.0 11.0 0.00 0.09 0.09 76 1016.1
20260904202604 65 230 7.0 12.0 0.00 0.09 0.09 76 1016.1
20260904202116 65 237 6.0 13.0 0.00 0.09 0.09 76 1015.9
20260904202106 65 245 7.0 12.0 0.00 0.09 0.09 76 1016.0
20260904201104 65 233 5.0 13.0 0.00 0.09 0.09 76 1016.1
20260904201045 65 229 5.0 11.0 0.00 0.09 0.09 76 1016.0
20260904200104 65 254 5.0 11.0 0.00 0.09 0.09 76 1015.9
20260904195603 65 242 5.0 10.0 0.00 0.09 0.09 76 1015.8
20260904195104 65 210 5.0 9.0 0.00 0.09 0.09 76 1015.7
20260904194604 65 262 5.0 9.0 0.00 0.09 0.09 76 1015.7
20260904194105 65 229 4.0 10.0 0.00 0.09 0.09 75 1015.6
20260904193602 65 239 4.0 10.0 0.00 0.09 0.09 75 1015.5
20260904193102 65 239 3.0 8.0 0.00 0.09 0.09 75 1015.6
20260904193051 65 236 4.0 9.0 0.00 0.09 0.09 74 1015.5
20260904192102 66 226 5.0 10.0 0.00 0.09 0.09 74 1015.4
20260904191609 66 232 6.0 11.0 0.00 0.09 0.09 74 1015.3
20260904191105 66 230 7.0 13.0 0.00 0.09 0.09 74 1015.4
20260904191052 66 241 8.0 15.0 0.00 0.09 0.09 74 1015.3
20260904190110 66 237 7.0 18.0 0.00 0.09 0.09 74 1015.2
20260904185604 66 247 6.0 18.0 0.00 0.09 0.09 75 1015.1
20260904185105 66 252 5.0 11.0 0.00 0.09 0.09 76 1015.0
20260904184608 66 249 5.0 11.0 0.00 0.09 0.09 76 1014.8
20260904184102 66 266 7.0 16.0 0.00 0.09 0.09 76 1015.0
20260904183604 66 272 7.0 16.0 0.00 0.09 0.09 76 1014.9
20260904183253 66 259 6.0 13.0 0.00 0.09 0.09 76 1014.7
20260904183150 66 232 6.0 15.0 0.00 0.09 0.09 76 1014.8
20260904182641 66 260 6.0 13.0 0.00 0.09 0.09 76 1014.7
20260904181604 66 229 8.0 15.0 0.00 0.09 0.09 76 1014.6
20260904181105 66 241 8.0 15.0 0.00 0.09 0.09 76 1014.5
20260904180603 66 249 8.0 16.0 0.00 0.09 0.09 76 1014.6
20260904180134 66 266 7.0 12.0 0.00 0.09 0.09 75 1014.5
20260904180114 66 242 7.0 16.0 0.00 0.09 0.09 76 1014.5
20260904175105 67 282 8.0 16.0 0.00 0.09 0.09 75 1014.5
20260904174607 67 235 8.0 18.0 0.00 0.09 0.09 75 1014.6
20260904174551 67 225 8.0 18.0 0.00 0.09 0.09 74 1014.5
20260904173604 67 233 9.0 17.0 0.00 0.09 0.09 74 1014.3
20260904173101 67 239 9.0 15.0 0.00 0.09 0.09 74 1014.2
20260904172603 67 239 9.0 19.0 0.00 0.09 0.09 74 1014.3
20260904172103 67 219 9.0 19.0 0.00 0.09 0.09 74 1014.1
20260904171602 67 248 9.0 17.0 0.00 0.09 0.09 74 1014.0
20260904171102 67 224 10.0 19.0 0.00 0.09 0.09 74 1014.2
20260904170604 67 254 11.0 19.0 0.00 0.09 0.09 74 1014.0
20260904170104 67 256 12.0 23.0 0.00 0.09 0.09 74 1014.1
20260904165602 67 233 11.0 23.0 0.00 0.09 0.09 74 1013.8
20260904165103 67 254 10.0 19.0 0.00 0.09 0.09 75 1013.8
20260904164604 67 232 10.0 20.0 0.00 0.09 0.09 76 1013.6
20260904164553 67 216 10.0 20.0 0.00 0.09 0.09 77 1013.6
20260904163602 68 273 10.0 23.0 0.00 0.09 0.09 78 1013.8
20260904163106 68 261 11.0 23.0 0.00 0.09 0.09 78 1013.7
20260904162628 68 274 9.0 23.0 0.00 0.09 0.09 79 1013.4
20260904162607 68 245 9.0 23.0 0.00 0.09 0.09 79 1013.6
20260904161606 68 245 11.0 23.0 0.00 0.09 0.09 78 1013.6
20260904161559 68 251 9.0 23.0 0.00 0.09 0.09 78 1013.3
20260904160604 68 237 10.0 22.0 0.00 0.09 0.09 78 1013.3
20260904160104 68 242 12.0 22.0 0.00 0.09 0.09 77 1013.5
20260904155603 68 262 12.0 23.0 0.00 0.09 0.09 77 1013.4
20260904155551 68 231 9.0 20.0 0.00 0.09 0.09 78 1013.4
20260904155308 68 226 12.0 23.0 0.00 0.09 0.09 77 1013.5
20260904154105 68 250 9.0 17.0 0.00 0.09 0.09 79 1013.2
20260904153602 68 256 11.0 20.0 0.00 0.09 0.09 79 1013.4
20260904153104 68 236 11.0 20.0 0.00 0.09 0.09 79 1013.4
20260904152559 68 191 11.0 26.0 0.00 0.09 0.09 79 1013.4
20260904152100 68 243 12.0 26.0 0.00 0.09 0.09 78 1013.3
20260904151558 68 234 12.0 29.0 0.00 0.09 0.09 78 1013.4
20260904151101 68 246 13.0 29.0 0.00 0.09 0.09 78 1013.4
20260904150558 68 256 14.0 27.0 0.00 0.09 0.09 79 1013.2
20260904150059 68 233 14.0 28.0 0.00 0.09 0.09 79 1013.2
20260904150047 68 245 11.0 23.0 0.00 0.09 0.09 82 1013.0
20260904145807 68 240 12.0 28.0 0.00 0.09 0.09 80 1013.2
20260904144602 68 236 10.0 17.0 0.00 0.09 0.09 84 1012.9
20260904144059 68 215 10.0 16.0 0.00 0.09 0.09 85 1012.9
20260904143600 68 233 11.0 20.0 0.00 0.09 0.09 86 1013.0
20260904143054 68 242 11.0 20.0 0.00 0.09 0.09 86 1013.1
20260904142555 67 229 11.0 20.0 0.00 0.09 0.09 88 1012.9
20260904142057 67 244 10.0 21.0 0.00 0.09 0.09 88 1012.7
20260904141555 67 209 8.0 21.0 0.00 0.09 0.09 90 1012.6
20260904141054 67 258 8.0 16.0 0.00 0.09 0.09 90 1012.6
20260904140555 67 185 8.0 18.0 0.00 0.09 0.09 90 1012.7
20260904140056 67 229 9.0 18.0 0.00 0.09 0.09 91 1012.8
20260904135557 67 233 9.0 14.0 0.00 0.09 0.09 91 1012.7
20260904135110 66 214 11.0 21.0 0.00 0.09 0.09 91 1012.4
20260904135055 66 205 10.0 21.0 0.00 0.09 0.09 91 1012.6
20260904134054 66 229 11.0 21.0 0.00 0.09 0.09 91 1012.3
20260904133554 66 255 11.0 27.0 0.00 0.09 0.09 92 1012.4
20260904133055 66 235 10.0 27.0 0.00 0.09 0.09 92 1012.1
20260904132554 66 238 10.0 21.0 0.00 0.09 0.09 93 1012.2
20260904132053 66 214 11.0 17.0 0.00 0.09 0.09 94 1012.1
20260904131554 66 228 10.0 20.0 0.00 0.09 0.09 94 1012.2
20260904131546 66 259 10.0 20.0 0.01 0.09 0.09 94 1012.2
20260904131040 66 230 9.0 18.0 0.01 0.09 0.09 95 1012.0
20260904130051 66 222 8.0 17.0 0.01 0.09 0.09 95 1012.2
20260904125553 66 242 7.0 14.0 0.01 0.09 0.09 95 1012.1
20260904125054 66 256 7.0 14.0 0.02 0.09 0.09 95 1012.1
20260904124555 66 262 9.0 19.0 0.07 0.09 0.09 95 1012.1
20260904124053 66 231 11.0 19.0 0.07 0.09 0.09 95 1011.9
20260904123553 66 239 11.0 20.0 0.07 0.09 0.09 95 1012.0
20260904123056 66 200 12.0 23.0 0.07 0.09 0.09 95 1011.9
20260904122555 66 256 12.0 23.0 0.08 0.09 0.09 94 1011.9
20260904122054 66 231 11.0 24.0 0.09 0.09 0.09 95 1011.8
20260904121552 66 288 12.0 24.0 0.09 0.09 0.08 94 1011.8
20260904121055 66 231 11.0 20.0 0.08 0.08 0.08 94 1011.8
20260904121043 66 250 9.0 20.0 0.08 0.08 0.08 94 1011.7
20260904120052 66 247 9.0 19.0 0.08 0.08 0.08 93 1011.6
20260904115548 67 281 10.0 19.0 0.08 0.08 0.08 92 1011.6
20260904115049 67 281 8.0 16.0 0.07 0.07 0.06 91 1011.5
20260904114550 68 278 8.0 22.0 0.02 0.02 0.02 91 1011.2
20260904114049 69 274 11.0 22.0 0.02 0.02 0.02 92 1011.3
20260904113553 69 229 12.0 26.0 0.02 0.02 0.02 92 1011.0
20260904113542 70 239 13.0 26.0 0.02 0.02 0.02 91 1011.1
20260904112549 70 225 13.0 25.0 0.01 0.01 0.01 90 1011.1
20260904112048 70 237 15.0 35.0 0.00 0.00 0.00 89 1011.0
20260904111548 70 249 15.0 35.0 0.00 0.00 0.00 89 1011.0
20260904111541 71 218 14.0 32.0 0.00 0.01 0.00 87 1010.8
20260904110600 71 139 15.0 31.0 0.00 0.01 0.00 86 1010.9
20260904110055 72 277 16.0 33.0 0.00 0.01 0.00 84 1010.8
20260904110044 72 179 15.0 31.0 0.00 0.01 0.00 85 1011.0
20260904105037 72 48 16.0 33.0 0.00 0.01 0.00 84 1010.9
20260904104535 72 239 16.0 30.0 0.00 0.01 0.00 85 1011.0
20260904104033 72 229 15.0 30.0 0.00 0.01 0.00 85 1011.0
20260904103535 72 238 16.0 30.0 0.00 0.01 0.00 85 1010.9
20260904103031 71 206 17.0 35.0 0.00 0.01 0.00 85 1010.9
20260904102532 71 194 16.0 35.0 0.00 0.01 0.00 85 1010.9
20260904102035 71 229 16.0 31.0 0.00 0.01 0.00 85 1011.0
20260904101552 71 241 17.0 33.0 0.00 0.01 0.00 87 1011.3
20260904101533 71 218 16.0 28.0 0.00 0.01 0.00 86 1011.0
20260904100530 71 214 16.0 34.0 0.00 0.01 0.00 87 1011.0
20260904100033 71 253 13.0 34.0 0.00 0.01 0.00 88 1011.0
20260904095531 71 263 11.0 25.0 0.00 0.01 0.00 88 1011.0
20260904095033 71 216 11.0 21.0 0.00 0.01 0.00 88 1011.0
20260904094532 71 183 11.0 21.0 0.00 0.01 0.00 88 1010.9
20260904094036 71 197 11.0 22.0 0.00 0.01 0.00 88 1011.0
20260904094025 71 216 11.0 22.0 0.00 0.01 0.00 88 1011.0
20260904093527 71 241 10.0 21.0 0.00 0.01 0.00 89 1011.0
20260904092536 71 210 10.0 19.0 0.00 0.01 0.00 89 1011.1
20260904092030 71 236 10.0 19.0 0.00 0.01 0.00 89 1011.1
20260904091530 71 214 9.0 25.0 0.00 0.01 0.00 89 1011.1
20260904091033 70 256 11.0 25.0 0.00 0.01 0.00 90 1011.1
20260904090622 70 245 9.0 20.0 0.00 0.01 0.00 90 1011.1
20260904090547 70 185 10.0 23.0 0.00 0.01 0.00 89 1011.2
20260904090038 70 208 10.0 20.0 0.00 0.01 0.00 90 1011.1
20260904085035 70 215 10.0 21.0 0.00 0.01 0.00 90 1010.9
20260904085026 70 200 10.0 21.0 0.00 0.01 0.00 90 1010.9
20260904084031 70 229 10.0 20.0 0.00 0.01 0.00 90 1011.0
20260904084020 70 202 11.0 29.0 0.00 0.01 0.00 89 1011.0
20260904083030 70 185 10.0 29.0 0.00 0.01 0.00 89 1011.0
20260904082537 70 185 10.0 28.0 0.00 0.01 0.00 89 1010.9
20260904082032 70 231 11.0 30.0 0.00 0.01 0.00 89 1011.0
20260904081533 70 235 11.0 30.0 0.00 0.01 0.00 89 1010.9
20260904081031 70 224 10.0 18.0 0.00 0.01 0.00 89 1010.9
20260904080532 70 251 11.0 25.0 0.00 0.02 0.00 89 1011.0
20260904080027 70 234 10.0 25.0 0.00 0.02 0.00 89 1011.0
20260904075528 70 241 10.0 25.0 0.00 0.02 0.00 89 1010.9
20260904075027 70 235 12.0 26.0 0.00 0.02 0.00 89 1010.9
20260904074527 70 251 12.0 26.0 0.00 0.02 0.00 89 1011.0
20260904074028 70 196 12.0 23.0 0.00 0.02 0.00 89 1011.0
20260904073939 70 236 10.0 26.0 0.00 0.02 0.00 90 1011.2
20260904073603 70 209 13.0 27.0 0.00 0.02 0.00 89 1011.1
20260904073109 70 204 13.0 29.0 0.00 0.02 0.00 89 1011.0
20260904072622 70 235 11.0 29.0 0.00 0.02 0.00 89 1011.2
20260904072146 71 164 10.0 24.0 0.00 0.02 0.00 89 1011.1
20260904071027 70 229 11.0 26.0 0.00 0.02 0.00 90 1011.0
20260904070545 70 172 12.0 27.0 0.00 0.03 0.00 90 1011.1
20260904070029 70 203 11.0 27.0 0.00 0.03 0.00 90 1011.1
20260904065528 70 237 11.0 31.0 0.00 0.03 0.00 90 1011.1
20260904065025 70 164 12.0 31.0 0.00 0.03 0.00 90 1011.1
20260904064527 70 185 11.0 26.0 0.00 0.03 0.00 90 1011.2
20260904064025 70 247 11.0 21.0 0.00 0.03 0.00 90 1011.2
20260904063526 70 201 10.0 21.0 0.00 0.03 0.00 90 1011.2
20260904063024 70 233 10.0 21.0 0.00 0.04 0.00 90 1011.3
20260904062526 70 191 10.0 25.0 0.00 0.04 0.00 90 1011.4
20260904062515 70 194 11.0 26.0 0.00 0.04 0.00 89 1011.5
20260904061525 70 226 10.0 26.0 0.00 0.04 0.00 89 1011.6
20260904061022 69 168 9.0 18.0 0.00 0.04 0.00 89 1011.5
20260904061004 69 233 10.0 18.0 0.00 0.04 0.00 89 1011.7
20260904060023 69 241 9.0 19.0 0.00 0.05 0.00 89 1011.7
20260904055521 69 210 9.0 21.0 0.00 0.05 0.00 89 1011.6
20260904055022 69 294 9.0 21.0 0.00 0.05 0.00 90 1011.5
20260904054524 69 237 8.0 17.0 0.00 0.06 0.00 90 1011.7
20260904054024 69 204 8.0 17.0 0.00 0.06 0.00 90 1011.7
20260904053523 69 193 9.0 18.0 0.00 0.06 0.00 90 1011.9
20260904053022 69 177 9.0 19.0 0.00 0.06 0.00 90 1011.9
20260904052523 69 229 10.0 20.0 0.00 0.06 0.00 90 1012.0
20260904052024 69 213 9.0 27.0 0.00 0.06 0.00 90 1012.1
20260904051525 69 272 7.0 27.0 0.00 0.06 0.00 90 1012.1
20260904051139 69 217 10.0 21.0 0.00 0.06 0.00 89 1012.2
20260904051047 69 210 8.0 18.0 0.00 0.06 0.00 89 1012.3
20260904050021 69 222 11.0 21.0 0.00 0.06 0.00 89 1012.5
20260904045655 69 204 10.0 27.0 0.00 0.06 0.00 89 1012.6
20260904045552 69 241 12.0 27.0 0.00 0.06 0.00 89 1012.5
20260904044634 69 237 9.0 27.0 0.00 0.06 0.00 89 1012.7
20260904044544 69 197 9.0 23.0 0.00 0.06 0.00 89 1012.7
20260904043522 69 215 10.0 27.0 0.00 0.06 0.00 89 1012.7
20260904043022 69 210 9.0 18.0 0.00 0.06 0.00 89 1012.8
20260904042519 69 179 8.0 18.0 0.00 0.06 0.00 89 1012.8
20260904042017 69 255 9.0 18.0 0.00 0.06 0.00 89 1013.0
20260904041957 69 197 8.0 18.0 0.00 0.06 0.00 89 1013.0
20260904041018 69 182 9.0 18.0 0.00 0.06 0.00 89 1013.1
20260904040518 69 216 10.0 23.0 0.00 0.06 0.00 89 1013.1
20260904040019 69 236 9.0 23.0 0.00 0.06 0.00 89 1013.2
20260904035522 69 207 9.0 20.0 0.00 0.06 0.00 89 1013.3
20260904035018 69 214 10.0 21.0 0.00 0.06 0.00 89 1013.3